Total_Precipitation_Accumulation
1.54 1.61 1.82 2.29 2.50 1.99 1.48 1.02 0.75 0.74 0.71 0.53 0.41 0.38 0.59 0.95 1.31 1.48 1.35 1.21 0.84 0.67 0.61 0.86 1.16 1.13 0.98 0.88 0.87 0.94 0.91 0.97 0.89 0.82 0.71 0.63 0.55 0.48 0.39 0.31 0.30 0.30 0.27 0.27 0.29 0.40 0.41 0.38 0.45
1.06 1.83 2.27 2.77 2.22 1.53 1.32 0.97 0.79 0.69 0.55 0.46 0.34 0.31 0.46 0.50 0.50 0.70 1.28 1.27 0.78 0.67 0.63 0.73 1.00 1.01 0.95 0.91 0.94 1.02 1.00 1.08 1.02 0.85 0.70 0.57 0.56 0.57 0.48 0.43 0.50 0.37 0.28 0.27 0.33 0.42 0.45 0.42 0.44
1.18 2.09 2.77 2.80 1.66 1.33 1.29 1.01 0.78 0.61 0.39 0.38 0.35 0.32 0.48 0.60 0.62 0.85 1.29 1.05 0.79 0.70 0.66 0.90 1.11 1.07 1.02 0.96 1.08 1.16 1.16 1.19 1.04 0.77 0.60 0.55 0.59 0.64 0.67 0.66 0.63 0.42 0.33 0.30 0.34 0.42 0.47 0.43 0.41
1.45 2.30 2.51 2.07 1.52 1.19 1.06 0.93 0.65 0.55 0.37 0.25 0.28 0.36 0.39 0.55 0.62 0.83 0.91 0.78 0.70 0.70 0.69 0.89 1.12 1.10 1.06 1.04 1.14 1.22 1.29 1.28 1.16 0.85 0.67 0.64 0.72 0.73 0.72 0.77 0.63 0.53 0.46 0.39 0.41 0.45 0.48 0.42 0.40
1.79 2.43 2.25 1.77 1.55 1.18 0.91 0.70 0.53 0.48 0.39 0.30 0.26 0.43 0.53 0.67 0.72 0.77 0.77 0.75 0.66 0.69 0.63 0.69 0.94 0.99 1.01 1.05 1.22 1.30 1.35 1.36 1.27 1.03 0.86 0.76 0.73 0.74 0.76 0.81 0.68 0.62 0.54 0.52 0.54 0.53 0.51 0.48 0.47
2.07 2.16 2.14 1.76 1.59 1.26 1.12 0.77 0.57 0.43 0.33 0.32 0.34 0.48 0.60 0.74 0.81 0.89 0.85 0.91 0.91 0.85 0.73 0.65 0.77 0.87 0.93 1.00 1.13 1.21 1.24 1.24 1.21 1.04 0.90 0.83 0.79 0.76 0.83 0.89 0.78 0.70 0.62 0.56 0.58 0.58 0.57 0.55 0.52
1.97 2.02 1.90 1.39 1.49 1.51 1.13 0.68 0.58 0.47 0.44 0.37 0.31 0.53 0.69 0.82 0.85 0.90 0.96 1.01 1.09 1.04 0.94 0.76 0.71 0.79 0.93 1.06 1.08 1.07 1.07 1.09 1.07 0.98 0.93 0.87 0.83 0.75 0.77 0.81 0.75 0.73 0.74 0.69 0.63 0.61 0.60 0.56 0.55
1.52 1.58 1.44 1.27 1.41 1.63 0.98 0.61 0.44 0.41 0.40 0.33 0.30 0.55 0.72 0.72 0.81 0.93 1.16 1.25 1.35 1.24 1.05 0.84 0.72 0.73 0.76 0.81 0.94 1.03 1.07 1.07 1.06 0.95 0.87 0.82 0.77 0.68 0.70 0.66 0.63 0.69 0.79 0.85 0.77 0.68 0.65 0.61 0.56
1.43 1.65 1.69 1.61 1.36 1.24 0.66 0.52 0.43 0.34 0.42 0.43 0.33 0.36 0.43 0.49 0.70 0.90 1.01 1.08 1.20 1.05 0.95 0.96 0.93 0.89 0.87 0.80 0.84 1.03 1.12 1.13 1.03 0.96 0.90 0.82 0.63 0.54 0.60 0.56 0.68 0.77 0.90 0.95 0.93 0.85 0.73 0.64 0.56
1.42 1.69 1.66 1.20 0.92 0.77 0.50 0.44 0.41 0.41 0.47 0.46 0.38 0.38 0.47 0.52 0.71 0.87 0.83 0.84 0.79 0.77 0.77 0.82 0.87 0.94 0.96 0.86 1.04 1.28 1.16 1.03 0.84 0.87 0.79 0.76 0.71 0.68 0.56 0.59 0.75 0.89 0.94 0.92 0.95 0.97 0.84 0.66 0.48
1.12 1.33 1.08 0.86 0.65 0.52 0.49 0.49 0.41 0.44 0.51 0.46 0.41 0.40 0.52 0.61 0.69 0.67 0.66 0.69 0.64 0.67 0.66 0.65 0.70 0.78 0.87 0.99 1.20 1.51 1.55 1.33 1.15 0.97 0.90 0.86 0.76 0.68 0.63 0.61 0.67 0.74 0.77 0.68 0.73 0.77 0.64 0.54 0.52
0.91 0.80 0.74 0.79 0.63 0.50 0.47 0.50 0.45 0.38 0.40 0.34 0.33 0.37 0.49 0.65 0.73 0.64 0.54 0.52 0.52 0.54 0.58 0.49 0.46 0.58 0.68 0.79 0.91 1.20 1.27 1.21 1.08 0.91 0.84 0.90 0.85 0.75 0.71 0.68 0.72 0.73 0.71 0.77 0.79 0.83 0.75 0.60 0.53
1.01 0.83 0.67 0.63 0.62 0.54 0.42 0.47 0.45 0.35 0.30 0.25 0.29 0.42 0.52 0.57 0.57 0.54 0.49 0.48 0.50 0.57 0.60 0.54 0.46 0.47 0.51 0.55 0.62 0.76 0.92 1.03 1.03 0.99 0.83 0.82 0.81 0.76 0.78 0.73 0.77 0.69 0.67 0.75 0.81 0.81 0.83 0.74 0.62
0.81 0.72 0.71 0.67 0.59 0.48 0.43 0.37 0.38 0.38 0.31 0.28 0.30 0.43 0.49 0.47 0.49 0.55 0.53 0.52 0.48 0.51 0.63 0.62 0.52 0.48 0.50 0.47 0.47 0.48 0.61 0.76 0.92 0.94 0.83 0.85 0.86 0.81 0.86 0.83 0.83 0.79 0.73 0.75 0.90 0.84 0.88 0.87 0.79
0.71 0.79 0.77 0.64 0.59 0.51 0.46 0.48 0.36 0.38 0.36 0.38 0.37 0.38 0.43 0.43 0.46 0.55 0.54 0.49 0.46 0.45 0.50 0.57 0.54 0.56 0.60 0.59 0.59 0.49 0.52 0.59 0.73 0.85 0.84 0.90 0.85 0.77 0.82 0.85 0.82 0.81 0.82 0.82 0.87 0.88 0.93 0.84 0.78
0.81 0.90 1.06 0.80 0.70 0.64 0.58 0.56 0.37 0.40 0.38 0.43 0.44 0.40 0.42 0.42 0.42 0.48 0.50 0.47 0.47 0.47 0.50 0.54 0.56 0.63 0.68 0.74 0.75 0.69 0.74 0.76 0.77 0.92 0.89 0.84 0.87 0.84 0.84 0.90 0.91 0.95 0.99 0.96 0.96 0.99 1.00 0.95 0.91
0.94 0.89 0.84 0.74 0.58 0.56 0.49 0.44 0.37 0.40 0.38 0.39 0.39 0.36 0.33 0.31 0.31 0.36 0.41 0.41 0.42 0.43 0.44 0.48 0.56 0.61 0.64 0.72 0.85 0.98 1.02 1.02 0.98 1.01 0.97 0.87 0.85 0.91 1.03 1.06 1.11 1.09 1.10 1.12 1.08 1.10 1.03 1.01 0.99
0.95 0.65 0.49 0.47 0.49 0.47 0.38 0.35 0.35 0.36 0.36 0.31 0.27 0.27 0.26 0.24 0.24 0.26 0.27 0.29 0.32 0.34 0.36 0.41 0.49 0.65 0.79 0.87 0.92 1.07 1.13 1.21 1.30 1.35 1.22 1.09 1.10 1.22 1.36 1.45 1.40 1.38 1.37 1.35 1.30 1.38 1.27 1.08 1.05
0.68 0.53 0.43 0.38 0.40 0.39 0.32 0.28 0.29 0.29 0.30 0.26 0.21 0.19 0.21 0.20 0.15 0.16 0.17 0.19 0.21 0.22 0.28 0.33 0.39 0.55 0.69 0.79 0.91 1.10 1.28 1.46 1.62 1.74 1.63 1.49 1.44 1.61 1.72 1.65 1.73 1.77 1.62 1.61 1.65 1.71 1.65 1.39 1.24
0.55 0.48 0.41 0.34 0.28 0.23 0.20 0.20 0.24 0.24 0.23 0.19 0.16 0.15 0.16 0.12 0.11 0.09 0.08 0.10 0.12 0.14 0.17 0.23 0.30 0.42 0.55 0.70 0.93 1.15 1.45 1.54 1.63 1.77 1.82 1.76 1.69 1.84 1.88 1.95 2.02 2.05 2.03 1.99 1.88 1.95 2.03 1.77 1.53
0.38 0.39 0.37 0.33 0.26 0.18 0.15 0.16 0.20 0.21 0.20 0.17 0.13 0.13 0.13 0.11 0.09 0.06 0.06 0.06 0.09 0.10 0.11 0.18 0.29 0.44 0.66 0.88 1.19 1.49 1.73 1.81 1.86 1.81 1.88 1.97 2.02 2.08 2.10 2.16 2.21 2.20 2.05 2.04 2.13 2.23 2.53 2.32 1.98
0.37 0.25 0.20 0.19 0.21 0.18 0.18 0.27 0.20 0.22 0.24 0.21 0.18 0.17 0.17 0.14 0.10 0.07 0.07 0.08 0.09 0.12 0.16 0.26 0.42 0.62 0.90 1.23 1.58 1.81 2.04 2.14 1.99 1.97 2.01 2.03 1.98 2.01 2.12 2.13 2.13 2.09 2.02 2.08 2.15 2.18 2.54 2.70 2.39
0.24 0.19 0.17 0.17 0.18 0.15 0.11 0.16 0.19 0.24 0.32 0.27 0.22 0.22 0.22 0.19 0.15 0.13 0.14 0.15 0.19 0.25 0.32 0.48 0.72 1.01 1.29 1.52 1.69 1.91 2.04 2.06 2.04 2.00 2.00 1.93 1.91 1.87 1.91 1.93 2.01 2.04 2.07 2.12 2.27 2.37 2.60 2.62 2.60
0.18 0.17 0.19 0.18 0.20 0.17 0.10 0.15 0.25 0.29 0.31 0.28 0.24 0.22 0.19 0.18 0.20 0.21 0.23 0.29 0.37 0.42 0.55 0.73 0.91 1.19 1.36 1.47 1.60 1.79 1.93 1.97 2.00 1.98 1.99 1.98 1.95 1.85 1.79 1.76 1.82 1.94 2.11 2.16 2.24 2.37 2.60 2.70 2.77
0.14 0.20 0.28 0.27 0.30 0.24 0.16 0.28 0.39 0.36 0.29 0.24 0.23 0.23 0.20 0.23 0.27 0.29 0.38 0.53 0.62 0.65 0.73 0.88 0.96 1.12 1.22 1.27 1.37 1.52 1.58 1.65 1.71 1.70 1.66 1.61 1.57 1.56 1.58 1.66 1.75 1.89 2.01 2.09 2.20 2.33 2.38 2.49 2.72
0.10 0.16 0.34 0.37 0.34 0.28 0.27 0.49 0.53 0.38 0.31 0.27 0.25 0.23 0.25 0.34 0.43 0.54 0.68 0.77 0.85 0.85 0.82 0.83 0.96 1.00 0.98 1.01 1.03 1.15 1.24 1.30 1.38 1.39 1.38 1.41 1.44 1.45 1.39 1.43 1.53 1.76 1.97 2.05 2.14 2.15 2.12 2.17 2.35
0.08 0.10 0.17 0.28 0.25 0.25 0.34 0.62 0.62 0.39 0.32 0.28 0.26 0.26 0.33 0.48 0.67 0.89 1.07 1.18 1.26 1.17 0.98 0.84 0.84 0.83 0.81 0.86 0.91 0.96 1.05 1.09 1.12 1.16 1.13 1.22 1.26 1.24 1.19 1.21 1.25 1.38 1.62 1.88 2.04 1.98 1.90 1.87 2.01
0.08 0.13 0.23 0.39 0.44 0.40 0.46 0.67 0.68 0.52 0.42 0.36 0.37 0.47 0.63 0.82 1.10 1.35 1.59 1.70 1.68 1.49 1.22 0.94 0.79 0.75 0.70 0.73 0.79 0.86 0.90 0.91 0.89 0.93 0.89 0.96 1.04 1.04 1.05 1.04 1.09 1.22 1.33 1.54 1.78 1.88 1.83 1.79 1.85
0.12 0.22 0.30 0.43 0.50 0.60 0.70 0.85 0.74 0.69 0.64 0.61 0.69 0.87 1.08 1.34 1.53 1.67 1.81 1.86 1.60 1.42 1.17 0.92 0.77 0.79 0.79 0.78 0.78 0.79 0.77 0.75 0.74 0.74 0.72 0.73 0.79 0.80 0.83 1.00 1.06 1.14 1.22 1.39 1.65 1.83 1.84 1.76 1.77
0.25 0.39 0.54 0.76 0.72 0.70 0.86 0.96 0.76 0.71 0.79 0.84 0.95 1.01 1.10 1.26 1.27 1.35 1.41 1.37 1.32 1.28 1.10 0.94 0.85 0.85 0.89 0.88 0.87 0.79 0.70 0.67 0.67 0.64 0.57 0.58 0.56 0.55 0.68 0.81 0.86 0.90 0.96 1.14 1.44 1.63 1.67 1.64 1.55